Location: Chandler
(33.3060°N, 111.8410°W)
Time: 09:06:24
(UTC-07:00)

Amateur Radio Satellites - All Passes

Search period start: 26 July 2016 08:36
Search period end: 27 July 2016 08:36
Location: Chandler, 33.3060°N, 111.8410°W

Satellite Date Start Highest point End Downlink Frequencies (MHz)
Time Altitude Azimuth
CUBEBUG 2 26 Jul 08:39:47 08:44:11 39° 98° (E) 08:48:27 437.445
DOVE 4 26 Jul 08:43:47 08:47:05 17° 292° (WNW) 08:50:25 437.250
UNISAT 6 26 Jul 08:57:11 08:59:43 15° 67° (ENE) 09:02:17 437.425
Cosmos 2491 26 Jul 08:58:08 09:06:56 87° 84° (E) 09:15:44 435.465 / 435.565
Cosmos 2504 26 Jul 08:59:44 09:01:48 11° 77° (ENE) 09:03:52 435.465 / 435.565
CANX-2 26 Jul 09:01:46 09:05:26 30° 288° (WNW) 09:09:06 2200.000
CINEMA 3 26 Jul 09:02:14 09:06:43 33° 288° (WNW) 09:11:09 145.822/145.860
SRMSAT 26 Jul 09:03:20 09:05:33 12° 196° (SSW) 09:07:46 437.500
AAUSAT CUBESAT 2 26 Jul 09:03:43 09:07:51 87° 107° (ESE) 09:11:57 437.432
Oscar 11 26 Jul 09:06:55 09:10:47 32° 98° (E) 09:14:37 145.826/435.025
CUTE 1.7 + AOD 2 26 Jul 09:15:38 09:19:02 24° 289° (WNW) 09:22:25 437.475
HO-68 26 Jul 09:23:14 09:29:57 44° 292° (WNW) 09:36:39 435.675
RS-15 26 Jul 09:30:30 09:38:57 22° 326° (NW) 09:47:44 29.354- 29.394
AUBIESAT-1 26 Jul 09:32:31 09:35:09 15° 98° (E) 09:37:46 437.475
ANTELSAT 26 Jul 09:33:44 09:37:57 37° 73° (ENE) 09:42:16 437.575/2403.000
DELFI C3 26 Jul 09:35:37 09:38:59 27° 97° (E) 09:42:22 145.870
SO-50 26 Jul 09:43:22 09:44:32 11° 315° (NW) 09:45:42 436.795
HUMSAT D 26 Jul 09:47:43 09:50:30 17° 94° (E) 09:53:15 437.325/437.525
UWE-3 26 Jul 09:56:20 10:00:37 40° 287° (WNW) 10:04:48 435.000/436.395/437.385
SEEDS 26 Jul 09:58:32 09:59:52 11° 293° (WNW) 10:01:12 437.485
FUNcube-1 26 Jul 09:58:40 10:03:06 63° 284° (WNW) 10:07:24 145.935
ZACube-1 26 Jul 09:59:03 10:03:28 58° 285° (WNW) 10:07:45 437.345
COMPASS 1 26 Jul 10:12:16 10:13:32 11° 293° (WNW) 10:14:47 437.405
TIGRISAT 26 Jul 10:15:18 10:19:53 76° 259° (W) 10:24:34 435.000
CUBEBUG 2 26 Jul 10:17:24 10:20:25 17° 292° (WNW) 10:23:24 437.445
NANOSAT C BR1 26 Jul 10:20:30 10:23:02 16° 68° (ENE) 10:25:36 145.865
YUBILEINY 26 Jul 10:21:32 10:30:04 56° 280° (W) 10:38:44 435.215
DUCHIFAT 1 26 Jul 10:25:07 10:27:48 17° 69° (ENE) 10:30:30 145.980
UNISAT 6 26 Jul 10:31:35 10:35:58 45° 261° (W) 10:40:28 437.425
M-CUBED/EXP-1 PRIME 26 Jul 10:38:06 10:42:49 77° 289° (WNW) 10:47:28 437.505
QB50P1 26 Jul 10:41:04 10:44:44 29° 72° (ENE) 10:48:25 145.935-145.965
JAS-2 26 Jul 10:43:37 10:46:09 13° 65° (ENE) 10:48:37 435.910
Oscar 11 26 Jul 10:43:48 10:46:37 17° 291° (WNW) 10:49:26 145.826/435.025
Cosmos 2504 26 Jul 10:44:52 10:53:36 74° 93° (E) 11:02:28 435.465 / 435.565
BUGSAT 1 26 Jul 10:45:21 10:46:31 11° 66° (ENE) 10:47:42 437.445
POPSAT HIP 1 26 Jul 10:47:14 10:51:03 34° 73° (ENE) 10:54:55 437.405
Cosmos 2491 26 Jul 10:58:09 11:02:31 15° 281° (W) 11:06:54 435.465 / 435.565
AUBIESAT-1 26 Jul 11:05:18 11:09:44 46° 291° (WNW) 11:14:08 437.475
QB50P2 26 Jul 11:07:29 11:11:41 68° 76° (ENE) 11:15:56 145.880/145.840
POLYITAN 1 26 Jul 11:10:07 11:14:20 70° 76° (ENE) 11:18:35 437.675
DELFI C3 26 Jul 11:11:05 11:13:36 17° 290° (WNW) 11:16:07 145.870
ANTELSAT 26 Jul 11:11:46 11:14:45 17° 266° (W) 11:17:46 437.575/2403.000
AISAT 26 Jul 11:13:50 11:16:37 16° 94° (E) 11:19:24 437.250
50 SAT 26 Jul 11:15:00 11:16:48 13° 94° (E) 11:18:36 437.505
DX 1 26 Jul 11:18:12 11:19:33 11° 93° (E) 11:20:54 434.975-435.025
HUMSAT D 26 Jul 11:22:31 11:26:07 29° 288° (WNW) 11:29:40 437.325/437.525
UKube-1 26 Jul 11:32:59 11:35:04 13° 94° (E) 11:37:09 .
ESTCUBE 1 26 Jul 11:43:29 11:47:56 65° 101° (E) 11:52:23 437.505/2401.250
NANOSAT C BR1 26 Jul 11:54:36 11:58:27 34° 262° (W) 12:02:20 145.865
RS-15 26 Jul 11:55:16 11:58:42 11° 3° (N) 12:02:08 29.354- 29.394
DUCHIFAT 1 26 Jul 11:59:25 12:03:11 32° 262° (W) 12:07:01 145.980
VELOX 1 26 Jul 12:04:03 12:08:28 62° 101° (E) 12:12:52 145.980
SPROUT 26 Jul 12:06:40 12:10:24 28° 97° (E) 12:14:08 437.525
CUBEBUG 1 26 Jul 12:07:39 12:12:04 82° 103° (ESE) 12:16:29 437.445
BUGSAT 1 26 Jul 12:17:31 12:21:25 46° 260° (W) 12:25:23 437.445
QB50P1 26 Jul 12:17:36 12:20:29 18° 265° (W) 12:23:24 145.935-145.965
Oscar 19 26 Jul 12:18:29 12:22:34 25° 69° (ENE) 12:26:39 437.125/150
POPSAT HIP 1 26 Jul 12:24:23 12:26:54 15° 266° (W) 12:29:26 437.405
JAS-2 26 Jul 12:24:25 12:30:46 74° 257° (WSW) 12:36:25 435.910
AIST 1 26 Jul 12:36:31 12:40:05 27° 90° (E) 12:43:40
Cosmos 2504 26 Jul 12:41:30 12:47:43 21° 290° (WNW) 12:54:00 435.465 / 435.565
50 SAT 26 Jul 12:47:23 12:50:25 26° 288° (WNW) 12:53:27 437.505
AISAT 26 Jul 12:49:04 12:53:09 36° 288° (WNW) 12:57:14 437.250
DX 1 26 Jul 12:51:44 12:55:57 49° 286° (WNW) 13:00:10 434.975-435.025
TISAT 1 26 Jul 13:05:18 13:09:01 29° 97° (E) 13:12:43 437.305
UKube-1 26 Jul 13:07:10 13:11:14 41° 287° (WNW) 13:15:17 .
Gurwin Techsat 1B 26 Jul 13:30:35 13:35:46 57° 74° (ENE) 13:40:59 435.225
AO-85 26 Jul 13:32:33 13:37:58 84° 119° (ESE) 13:43:14 145.980
SPROUT 26 Jul 13:43:01 13:46:08 20° 291° (WNW) 13:49:14 437.525
VELOX 1 26 Jul 13:43:54 13:44:21 10° 295° (WNW) 13:44:47 145.980
ITAMSAT 1 26 Jul 13:50:38 13:55:00 28° 69° (ENE) 13:59:23 435.822/435.867
Cosmos 2499 26 Jul 13:52:44 13:56:22 13° 79° (ENE) 13:59:59 435.465 / 435.565
AO-7 26 Jul 13:54:58 14:01:18 25° 59° (ENE) 14:07:38 29.400- 29.500
Oscar 19 26 Jul 13:57:11 14:01:41 31° 262° (W) 14:06:13 437.125/150
RS-15 26 Jul 14:08:05 14:17:56 26° 39° (NE) 14:27:39 29.354- 29.394
AIST 1 26 Jul 14:14:45 14:17:38 18° 284° (WNW) 14:20:33
CUSAT 1 26 Jul 14:16:51 14:19:39 29° 82° (E) 14:23:03 437.405
SWISSCUBE 26 Jul 14:17:31 14:21:55 37° 99° (E) 14:26:18 437.505
GONETS M04 26 Jul 14:29:58 14:37:46 39° 87° (E) 14:45:34
BEESAT 26 Jul 14:38:45 14:43:28 59° 101° (E) 14:48:08 436.000
TISAT 1 26 Jul 14:41:28 14:44:25 19° 291° (WNW) 14:47:23 437.305
ITUPSAT 1 26 Jul 15:01:19 15:06:06 80° 283° (WNW) 15:10:50 437.325
Gurwin Techsat 1B 26 Jul 15:13:18 15:16:00 14° 267° (W) 15:18:43 435.225
AO-85 26 Jul 15:16:27 15:19:01 13° 312° (NW) 15:21:32 145.980
MOZHAYETS 4 26 Jul 15:27:08 15:30:37 21° 95° (E) 15:34:05
ITAMSAT 1 26 Jul 15:29:50 15:34:20 29° 263° (W) 15:38:51 435.822/435.867
Cosmos 2499 26 Jul 15:39:17 15:48:09 83° 95° (E) 15:56:56 435.465 / 435.565
STARS 26 Jul 15:40:26 15:42:14 12° 93° (E) 15:44:02 437.465
AO-7 26 Jul 15:45:03 15:53:20 67° 255° (WSW) 16:01:41 29.400- 29.500
SWISSCUBE 26 Jul 15:56:10 15:59:23 18° 293° (WNW) 16:02:36 437.505
DANDE 26 Jul 16:15:50 16:17:30 15° 265° (W) 16:19:17 436.750
BEESAT 26 Jul 16:18:51 16:20:41 12° 295° (WNW) 16:22:31 436.000
RS-15 26 Jul 16:19:51 16:32:20 87° 63° (ENE) 16:44:28 29.354- 29.394
GONETS M04 26 Jul 16:26:33 16:34:26 38° 284° (WNW) 16:42:24
PHONESAT 2.4 26 Jul 16:33:01 16:36:04 69° 153° (SSE) 16:39:09 2401.200-2431.200
KKS-1 26 Jul 16:33:49 16:38:17 67° 284° (WNW) 16:42:43 437.445
SO-50 26 Jul 16:34:40 16:38:33 26° 53° (NE) 16:42:20 436.795
Cubesat XI-IV 26 Jul 16:41:55 16:44:18 13° 64° (ENE) 16:46:42 437.490
CUBESAT XI-V 26 Jul 16:44:56 16:47:56 17° 94° (E) 16:50:55 437.345
HORYU 2 26 Jul 16:51:32 16:56:00 73° 259° (WSW) 17:00:30 437.375
MOZHAYETS 4 26 Jul 17:03:50 17:07:43 28° 289° (WNW) 17:11:36
CUTE-I 26 Jul 17:03:53 17:07:57 22° 67° (ENE) 17:12:01 437.470
BRITE-PL 26 Jul 17:05:40 17:09:17 29° 72° (ENE) 17:12:52 437.365/2234.400
STARS 26 Jul 17:14:31 17:18:47 47° 286° (WNW) 17:23:01 437.465
LilacSat-2 26 Jul 17:16:29 17:19:22 20° 71° (ENE) 17:22:16 437.200
NOAA 15 26 Jul 17:25:05 17:30:06 49° 73° (ENE) 17:35:09 137.62
NOAA 18 26 Jul 17:33:11 17:38:24 45° 71° (ENE) 17:43:39 137.9125
Cosmos 2499 26 Jul 17:36:28 17:42:07 18° 291° (WNW) 17:47:44 435.465 / 435.565
BEESAT 3 26 Jul 17:40:09 17:43:41 33° 113° (ESE) 17:47:14 437.485
BEESAT 2 26 Jul 17:45:47 17:48:37 19° 110° (ESE) 17:51:27 435.950
HO-68 26 Jul 18:03:00 18:06:38 15° 58° (ENE) 18:10:15 435.675
DOVE 4 26 Jul 18:07:06 18:10:38 26° 71° (ENE) 18:14:19 437.250
PHONESAT 2.4 26 Jul 18:10:03 18:12:45 27° 347° (NNW) 18:15:28 2401.200-2431.200
GOMX 1 26 Jul 18:10:26 18:14:33 74° 77° (ENE) 18:18:48 467.674
SO-50 26 Jul 18:15:07 18:18:54 26° 249° (WSW) 18:22:37 436.795
Cubesat XI-IV 26 Jul 18:18:23 18:23:43 69° 257° (WSW) 18:29:07 437.490
PCSat 26 Jul 18:20:15 18:25:02 33° 108° (ESE) 18:29:50 145.827
CUBESAT XI-V 26 Jul 18:21:10 18:25:22 36° 288° (WNW) 18:29:35 437.345
CINEMA 3 26 Jul 18:25:17 18:26:51 12° 65° (ENE) 18:28:27 145.822/145.860
RS-15 26 Jul 18:35:05 18:43:11 21° 260° (W) 18:51:12 29.354- 29.394
CUTE-I 26 Jul 18:42:42 18:47:41 39° 261° (W) 18:52:42 437.470
BRITE-PL 26 Jul 18:45:14 18:47:50 16° 266° (W) 18:50:24 437.365/2234.400
LilacSat-2 26 Jul 18:50:32 18:53:30 21° 264° (W) 18:56:31 437.200
NOAA 15 26 Jul 19:06:54 19:10:05 16° 266° (W) 19:13:17 137.62
SEEDS 26 Jul 19:08:56 19:11:59 20° 70° (ENE) 19:15:01 437.485
NOAA 18 26 Jul 19:15:17 19:19:11 20° 265° (W) 19:23:08 137.9125
BEESAT 3 26 Jul 19:18:54 19:21:26 16° 308° (NW) 19:23:58 437.485
COMPASS 1 26 Jul 19:21:53 19:24:49 19° 70° (ENE) 19:27:45 437.405
BEESAT 2 26 Jul 19:22:52 19:26:14 27° 304° (NW) 19:29:39 435.950
CUBEBUG 2 26 Jul 19:34:12 19:37:32 20° 69° (ENE) 19:40:58 437.445
STRAND 1 26 Jul 19:35:59 19:41:05 67° 102° (ESE) 19:46:08 437.568
AIST 2 26 Jul 19:42:07 19:44:35 16° 109° (ESE) 19:47:04 435.215
DOVE 4 26 Jul 19:45:14 19:48:19 20° 266° (W) 19:51:31 437.250
HO-68 26 Jul 19:46:09 19:53:20 90° 262° (W) 20:00:34 435.675
PHONESAT 2.4 26 Jul 19:47:23 19:49:49 21° 4° (N) 19:52:16 2401.200-2431.200
CANX-2 26 Jul 19:49:25 19:53:42 76° 258° (WSW) 19:57:59 2200.000
AAUSAT CUBESAT 2 26 Jul 19:49:53 19:53:35 31° 73° (ENE) 19:57:16 437.432
Oscar 11 26 Jul 19:58:40 20:01:16 16° 68° (ENE) 20:03:53 145.826/435.025
CINEMA 3 26 Jul 19:59:03 20:03:23 55° 261° (W) 20:07:56 145.822/145.860
ISS 26 Jul 19:59:47 20:02:32 25° 130° (SE) 20:05:17 145.825
Cosmos 2491 26 Jul 20:00:58 20:06:33 19° 81° (E) 20:12:06 435.465 / 435.565
CUTE 1.7 + AOD 2 26 Jul 20:03:02 20:07:15 59° 259° (W) 20:11:28 437.475
PCSat 26 Jul 20:03:46 20:08:23 28° 304° (NW) 20:13:01 145.827
O/OREOS (USA 219) 26 Jul 20:24:15 20:28:42 86° 287° (WNW) 20:33:12 437.305
YUBILEINY 26 Jul 20:36:43 20:45:28 61° 81° (E) 20:54:06 435.215
SEEDS 26 Jul 20:43:52 20:47:28 27° 263° (W) 20:51:05 437.485
Cosmos 2504 26 Jul 20:45:22 20:50:49 19° 69° (ENE) 20:56:00 435.465 / 435.565
UWE-3 26 Jul 20:48:09 20:52:40 85° 259° (WSW) 20:57:19 435.000/436.395/437.385
FUNcube-1 26 Jul 20:49:18 20:53:42 58° 75° (ENE) 20:58:11 145.935
ZACube-1 26 Jul 20:49:55 20:54:21 63° 76° (ENE) 20:58:53 437.345
COMPASS 1 26 Jul 20:56:34 21:00:09 27° 263° (W) 21:03:45 437.405
CUBEBUG 2 26 Jul 21:09:52 21:13:53 31° 263° (W) 21:18:02 437.445
STRAND 1 26 Jul 21:17:43 21:19:37 12° 296° (WNW) 21:21:31 437.568
AIST 2 26 Jul 21:18:59 21:22:44 34° 303° (WNW) 21:26:32 435.215
M-CUBED/EXP-1 PRIME 26 Jul 21:20:52 21:24:27 64° 72° (ENE) 21:28:23 437.505
PHONESAT 2.4 26 Jul 21:23:45 21:26:44 46° 20° (NNE) 21:29:43 2401.200-2431.200
AAUSAT CUBESAT 2 26 Jul 21:26:31 21:29:05 16° 266° (W) 21:31:38 437.432
PRISM 26 Jul 21:29:04 21:33:01 48° 286° (WNW) 21:36:58 437.425
ANTELSAT 26 Jul 21:32:26 21:33:27 11° 91° (E) 21:34:28 437.575/2403.000
Oscar 11 26 Jul 21:33:03 21:37:04 36° 262° (W) 21:41:06 145.826/435.025
ISS 26 Jul 21:36:14 21:38:54 23° 324° (NW) 21:41:35 145.825
HO-68 26 Jul 21:39:12 21:41:46 12° 269° (W) 21:44:20 435.675
AUBIESAT-1 26 Jul 21:47:20 21:50:59 70° 254° (WSW) 21:54:58 437.475
DELFI C3 26 Jul 21:51:19 21:55:12 50° 260° (W) 21:59:04 145.870
Cosmos 2491 26 Jul 21:53:42 22:02:22 73° 277° (W) 22:11:06 435.465 / 435.565
HUMSAT D 26 Jul 22:08:29 22:12:46 76° 258° (WSW) 22:17:06 437.325/437.525
AO-85 26 Jul 22:09:54 22:13:11 21° 51° (NE) 22:16:17 145.980
TIGRISAT 26 Jul 22:11:32 22:15:38 31° 97° (E) 22:19:37 435.000
UNISAT 6 26 Jul 22:27:27 22:31:57 51° 100° (E) 22:36:20 437.425
FUNcube-1 26 Jul 22:29:44 22:30:15 10° 269° (W) 22:30:44 145.935
YUBILEINY 26 Jul 22:34:57 22:41:29 24° 277° (W) 22:48:00 435.215
Cosmos 2504 26 Jul 22:36:57 22:44:55 67° 268° (W) 22:52:18 435.465 / 435.565
ESTCUBE 1 26 Jul 22:38:57 22:43:02 35° 73° (ENE) 22:47:07 437.505/2401.250
VELOX 1 26 Jul 22:57:28 23:01:20 31° 72° (ENE) 23:05:13 145.980
SPROUT 26 Jul 22:57:42 22:59:47 13° 67° (ENE) 23:01:52 437.525
QB50P2 26 Jul 22:57:56 23:00:29 15° 94° (E) 23:03:00 145.880/145.840
CUBEBUG 1 26 Jul 22:59:33 23:03:32 38° 73° (ENE) 23:07:32 437.445
POLYITAN 1 26 Jul 23:00:31 23:03:07 16° 94° (E) 23:05:43 437.675
PHONESAT 2.4 26 Jul 23:00:32 23:03:08 25° 214° (SW) 23:05:43 2401.200-2431.200
ANTELSAT 26 Jul 23:05:57 23:10:29 56° 285° (WNW) 23:14:52 437.575/2403.000
50 SAT 26 Jul 23:20:00 23:23:38 63° 77° (ENE) 23:27:16 437.505
JAS-2 26 Jul 23:39:10 23:42:05 14° 95° (E) 23:45:07 435.910
AISAT 26 Jul 23:41:42 23:46:03 70° 259° (W) 23:50:26 437.250
DX 1 26 Jul 23:42:39 23:46:58 81° 75° (ENE) 23:51:18 434.975-435.025
NANOSAT C BR1 26 Jul 23:42:43 23:46:52 48° 100° (E) 23:50:58 145.865
DUCHIFAT 1 26 Jul 23:47:09 23:51:19 51° 100° (E) 23:55:27 145.980
TIGRISAT 26 Jul 23:48:41 23:52:03 20° 291° (WNW) 23:55:22 435.000
AO-85 26 Jul 23:50:02 23:53:35 27° 249° (WSW) 23:56:56 145.980
TISAT 1 26 Jul 23:54:29 23:56:29 13° 67° (ENE) 23:58:29 437.305
UKube-1 26 Jul 23:56:59 00:01:16 87° 254° (WSW) 00:05:36 .
Cosmos 2491 26 Jul 23:59:09 00:00:44 11° 296° (WNW) 00:02:18 435.465 / 435.565
BUGSAT 1 27 Jul 00:03:23 00:07:13 32° 98° (E) 00:11:03 437.445
QB50P1 27 Jul 00:04:49 00:09:07 82° 285° (WNW) 00:13:23 145.935-145.965
UNISAT 6 27 Jul 00:06:07 00:08:08 13° 294° (WNW) 00:10:08 437.425
POPSAT HIP 1 27 Jul 00:11:16 00:15:32 69° 284° (WNW) 00:19:47 437.405
ESTCUBE 1 27 Jul 00:17:00 00:19:53 17° 266° (W) 00:22:47 437.505/2401.250
AIST 1 27 Jul 00:24:12 00:28:33 71° 84° (E) 00:32:54
SPROUT 27 Jul 00:31:17 00:35:18 42° 261° (W) 00:39:23 437.525
QB50P2 27 Jul 00:32:27 00:36:21 35° 287° (WNW) 00:40:13 145.880/145.840
VELOX 1 27 Jul 00:34:51 00:37:48 18° 265° (W) 00:40:47 145.980
POLYITAN 1 27 Jul 00:35:06 00:38:59 34° 287° (WNW) 00:42:51 437.675
Oscar 19 27 Jul 00:35:54 00:37:37 12° 92° (E) 00:39:21 437.125/150
CUBEBUG 1 27 Jul 00:37:40 00:39:55 14° 266° (W) 00:42:12 437.445
GONETS M04 27 Jul 00:47:15 00:51:39 14° 66° (ENE) 00:56:02
JUGNU 27 Jul 01:07:13 01:10:45 16° 168° (SSE) 01:14:16 437.505
SWISSCUBE 27 Jul 01:20:07 01:24:09 28° 70° (ENE) 01:28:11 437.505
NANOSAT C BR1 27 Jul 01:20:37 01:22:06 12° 294° (WNW) 01:23:36 145.865
JAS-2 27 Jul 01:22:07 01:27:21 57° 285° (WNW) 01:33:05 435.910
DUCHIFAT 1 27 Jul 01:25:18 01:26:30 11° 294° (WNW) 01:27:42 145.980
TISAT 1 27 Jul 01:27:47 01:31:44 41° 261° (W) 01:35:43 437.305
Cosmos 2499 27 Jul 01:38:19 01:43:48 21° 70° (ENE) 01:49:01 435.465 / 435.565
BUGSAT 1 27 Jul 01:39:33 01:42:18 17° 291° (WNW) 01:45:03 437.445
BEESAT 27 Jul 01:40:59 01:45:29 42° 72° (ENE) 01:49:58 436.000
Gurwin Techsat 1B 27 Jul 01:51:22 01:56:05 32° 97° (E) 02:00:46 435.225
ITUPSAT 1 27 Jul 02:03:36 02:08:23 74° 76° (ENE) 02:13:11 437.325
ITAMSAT 1 27 Jul 02:09:07 02:11:28 13° 93° (E) 02:13:48 435.822/435.867
Oscar 19 27 Jul 02:12:10 02:17:17 65° 285° (WNW) 02:22:25 437.125/150
MOZHAYETS 4 27 Jul 02:26:12 02:28:29 14° 67° (ENE) 02:30:45
GONETS M04 27 Jul 02:40:46 02:49:38 87° 85° (E) 02:58:30
JUGNU 27 Jul 02:54:41 02:59:07 22° 178° (S) 03:03:32 437.505
SWISSCUBE 27 Jul 02:57:57 03:01:50 25° 264° (W) 03:05:45 437.505
PCSat 27 Jul 03:13:47 03:16:08 13° 49° (NE) 03:18:27 145.827
CUSAT 1 27 Jul 03:15:39 03:20:14 58° 97° (E) 03:23:44 437.405
BEESAT 27 Jul 03:20:27 03:23:23 16° 266° (W) 03:26:18 436.000
SRMSAT 27 Jul 03:23:39 03:27:05 16° 168° (SSE) 03:30:31 437.500
KKS-1 27 Jul 03:27:24 03:31:47 65° 75° (ENE) 03:36:12 437.445
Cosmos 2499 27 Jul 03:29:55 03:37:28 59° 269° (W) 03:44:30 435.465 / 435.565
Gurwin Techsat 1B 27 Jul 03:31:30 03:35:51 26° 291° (WNW) 03:40:11 435.225
DANDE 27 Jul 03:35:24 03:41:03 38° 96° (E) 03:45:24 436.750
BEESAT 3 27 Jul 03:38:09 03:42:07 78° 62° (ENE) 03:46:03 437.485
BEESAT 2 27 Jul 03:44:01 03:47:51 44° 58° (ENE) 03:51:40 435.950
ITAMSAT 1 27 Jul 03:46:08 03:51:14 58° 286° (WNW) 03:56:17 435.822/435.867
CUBESAT XI-V 27 Jul 03:46:20 03:47:26 11° 65° (ENE) 03:48:33 437.345
AO-7 27 Jul 03:51:26 03:59:37 56° 103° (ESE) 04:07:42 29.400- 29.500
MOZHAYETS 4 27 Jul 04:00:41 04:05:10 49° 260° (W) 04:09:40
ISS 27 Jul 04:06:24 04:09:35 52° 41° (NE) 04:12:46 145.825
STARS 27 Jul 04:06:29 04:10:52 88° 71° (ENE) 04:15:17 437.465
RS-15 27 Jul 04:31:06 04:37:27 17° 98° (E) 04:43:55 29.354- 29.394
GONETS M04 27 Jul 04:40:48 04:45:11 15° 281° (W) 04:49:35
JUGNU 27 Jul 04:43:25 04:47:30 19° 188° (S) 04:51:34 437.505
HORYU 2 27 Jul 04:47:02 04:50:55 28° 97° (E) 04:54:45 437.375
PCSat 27 Jul 04:54:44 05:00:10 84° 246° (WSW) 05:05:34 145.827
SRMSAT 27 Jul 05:11:13 05:15:35 21° 178° (S) 05:19:58 437.500
BRITE-PL 27 Jul 05:13:55 05:17:04 17° 95° (E) 05:20:19 437.365/2234.400
DANDE 27 Jul 05:19:34 05:23:36 19° 280° (W) 05:27:00 436.750
CUBESAT XI-V 27 Jul 05:19:41 05:24:15 62° 259° (W) 05:28:50 437.345
BEESAT 2 27 Jul 05:23:54 05:25:14 11° 252° (WSW) 05:26:35 435.950
CUTE-I 27 Jul 05:26:53 05:28:29 11° 92° (E) 05:30:04 437.470
AIST 2 27 Jul 05:43:49 05:47:45 39° 58° (ENE) 05:51:39 435.215
NOAA 15 27 Jul 05:44:52 05:49:13 26° 97° (E) 05:53:32 137.62
AO-7 27 Jul 05:45:03 05:51:51 29° 299° (WNW) 05:58:38 29.400- 29.500
ISS 27 Jul 05:45:11 05:45:38 10° 235° (SW) 05:46:04 145.825
NOAA 18 27 Jul 05:59:54 06:04:32 27° 97° (E) 06:09:07 137.9125
DOVE 4 27 Jul 06:10:45 06:13:09 13° 92° (E) 06:15:33 437.250
GOMX 1 27 Jul 06:15:23 06:20:02 34° 97° (E) 06:24:54 467.674
HORYU 2 27 Jul 06:23:55 06:27:15 21° 291° (WNW) 06:30:34 437.375
LilacSat-2 27 Jul 06:27:03 06:30:50 52° 100° (E) 06:34:33 437.200
JUGNU 27 Jul 06:34:29 06:35:49 11° 197° (SSW) 06:37:08 437.505
RS-15 27 Jul 06:36:37 06:47:57 86° 116° (ESE) 06:59:59 29.354- 29.394
O/OREOS (USA 219) 27 Jul 06:38:17 06:42:49 89° 71° (ENE) 06:47:23 437.305
Cubesat XI-IV 27 Jul 06:39:54 06:45:15 69° 102° (ESE) 06:50:32 437.490
SO-50 27 Jul 06:44:53 06:48:41 23° 110° (ESE) 06:52:30 436.795
STRAND 1 27 Jul 06:47:33 06:52:37 63° 74° (ENE) 06:57:43 437.568
BRITE-PL 27 Jul 06:50:54 06:55:36 46° 285° (WNW) 07:00:37 437.365/2234.400
SRMSAT 27 Jul 07:00:04 07:04:07 19° 188° (S) 07:08:11 437.500
CUTE-I 27 Jul 07:03:37 07:08:56 69° 285° (WNW) 07:14:11 437.470
HO-68 27 Jul 07:19:51 07:25:08 22° 95° (E) 07:30:22 435.675
AIST 2 27 Jul 07:23:37 07:25:51 14° 251° (WSW) 07:28:05 435.215
NOAA 15 27 Jul 07:24:19 07:28:55 32° 290° (WNW) 07:33:31 137.62
CANX-2 27 Jul 07:39:12 07:42:38 24° 96° (E) 07:46:04 2200.000
NOAA 18 27 Jul 07:40:14 07:45:08 33° 291° (WNW) 07:50:00 137.9125
YUBILEINY 27 Jul 07:42:46 07:45:15 11° 77° (ENE) 07:47:44 435.215
DOVE 4 27 Jul 07:45:57 07:51:05 62° 285° (WNW) 07:56:18 437.250
CUTE 1.7 + AOD 2 27 Jul 07:52:24 07:56:06 30° 97° (E) 07:59:48 437.475
GOMX 1 27 Jul 07:53:47 07:57:54 25° 289° (WNW) 08:02:10 467.674
CINEMA 3 27 Jul 07:57:36 08:02:29 50° 99° (E) 08:07:16 145.822/145.860
Cosmos 2491 27 Jul 08:09:21 08:17:44 47° 78° (ENE) 08:26:04 435.465 / 435.565
PRISM 27 Jul 08:13:58 08:18:00 64° 76° (ENE) 08:22:02 437.425
Cubesat XI-IV 27 Jul 08:22:24 08:24:39 13° 297° (WNW) 08:26:54 437.490
SO-50 27 Jul 08:24:30 08:28:58 34° 304° (NW) 08:33:24 436.795
STRAND 1 27 Jul 08:30:14 08:32:07 12° 268° (W) 08:34:01 437.568
